{"data":{"norad_id":69720,"epoch":"2026-09-19T20:02:17.708352Z","epoch_age_seconds":79047,"freshness":"FRESH","line1":"1 69720U 26147S   26262.83492718  .00017063  00000+0  52933-3 0  9995","line2":"2 69720  97.2853 299.2313 0000692 243.0211 117.0961 15.33465672 14135","mean_motion":15.33465672,"eccentricity":6.92e-5,"inclination_deg":97.2853,"raan_deg":299.2313,"arg_perigee_deg":243.0211,"mean_anomaly_deg":117.0961,"bstar":0.00052933,"rev_number":1413,"period_min":93.904938747139,"perigee_km":465.00809142911,"apogee_km":465.95524825301,"semimajor_km":6843.6186698411,"source":"CELESTRAK","updated_at":"2026-09-20T09:00:44.284115Z"}}